Weather History for Jackson, MN

Change the Weather History Date:

Monday, January 21, 2013

  Actual Average Record
Temperature  
Mean Temperature -1 °F -  
Max Temperature 5 °F 22 °F 44 °F (2002)
Min Temperature -7 °F 6 °F -14 °F (2000)
Degree Days  
Heating Degree Days 66    
Moisture  
Dew Point -11 °F    
Average Humidity 63    
Maximum Humidity 78    
Minimum Humidity 52    
Precipitation  
Precipitation 0.00 in - - ()
Sea Level Pressure  
Sea Level Pressure 30.28 in    
Wind  
Wind Speed 17 mph (WNW)    
Max Wind Speed 26 mph    
Max Gust Speed 33 mph    
Visibility 10 miles    
Events Snow    
Averages and records for this station are not official NWS values.
T = Trace of Precipitation, MM = Missing Value Source: NWS Daily Summary

Daily Weather History Graph

Daily Weather History Graph

Search for Another Location

Airport:

Trip Planner

Search our weather history database for the weather conditions in past years. The results will help you decide how hot, cold, wet, or windy it might be!

Date:

Astronomy

Jan. 21, 2013 Rise Set
Actual Time 7:46 AM CST 5:16 PM CST
Civil Twilight 7:15 AM CST 5:48 PM CST
Nautical Twilight 6:40 AM CST 6:23 PM CST
Astronomical Twilight 6:05 AM CST 6:57 PM CST
Moon 12:56 PM CST (1/21) 3:15 AM CST (1/21)
Length of Visible Light 10h 33m
Length of Day
9h 30m
Waxing Gibbous, 75% of the Moon is Illuminated
Jan 21
Waxing Gibbous
Jan 26
Full
Feb 3
Last Quarter
Feb 10
New
Feb 17
First Quarter

Hourly Weather History & Observations

Time (CST) Temp. Windchill Dew Point Humidity Pressure Visibility Wind Dir Wind Speed Gust Speed Precip Events Conditions
12:13 AM 1.4 °F -19.4 °F -7.6 °F 66% 30.29 in 10.0 mi NW 18.4 mph - N/A   Scattered Clouds
12:33 AM 1.4 °F -18.8 °F -7.6 °F 66% 30.28 in 10.0 mi WNW 17.3 mph - N/A   Scattered Clouds
12:53 AM 1.4 °F -20.5 °F -7.6 °F 66% 30.28 in 4.0 mi NW 20.7 mph 24.2 mph N/A   Haze
1:13 AM -0.4 °F -24.3 °F -5.8 °F 78% 30.28 in 1.2 mi NW 24.2 mph 28.8 mph N/A Snow Light Snow
1:33 AM -0.4 °F -21.7 °F -9.4 °F 66% 30.29 in 3.0 mi NW 18.4 mph 26.5 mph N/A Snow Light Snow
1:53 AM -2.2 °F -22.9 °F -11.2 °F 66% 30.29 in 7.0 mi NW 16.1 mph 21.9 mph N/A   Mostly Cloudy
2:13 AM -2.2 °F -20.7 °F -9.4 °F 71% 30.30 in 7.0 mi WNW 12.7 mph - N/A   Mostly Cloudy
2:33 AM -4.0 °F -29.1 °F -9.4 °F 78% 30.31 in 1.5 mi NW 24.2 mph 32.2 mph N/A Snow Light Snow
2:52 AM -5.8 °F -32.4 °F -16.6 °F 60% 30.31 in 10.0 mi WNW 26.5 mph 33.4 mph N/A   Scattered Clouds
3:13 AM -5.8 °F -30.5 °F -16.6 °F 60% 30.32 in 10.0 mi NW 21.9 mph 28.8 mph N/A   Clear
3:33 AM -7.6 °F -32.3 °F -16.6 °F 65% 30.31 in 10.0 mi NW 20.7 mph 26.5 mph N/A   Clear
3:53 AM -7.6 °F -31.1 °F -16.6 °F 65% 30.32 in 10.0 mi NW 18.4 mph 27.6 mph N/A   Clear
4:13 AM -7.6 °F -29.8 °F -16.6 °F 65% 30.32 in 10.0 mi NW 16.1 mph - N/A   Clear
4:53 AM -7.6 °F -29.8 °F -16.6 °F 65% 30.31 in 10.0 mi NW 16.1 mph 23.0 mph N/A   Clear
5:13 AM -7.6 °F -30.5 °F -18.4 °F 59% 30.31 in 10.0 mi NW 17.3 mph 24.2 mph N/A   Clear
5:33 AM -7.6 °F -29.8 °F -16.6 °F 65% 30.31 in 10.0 mi NW 16.1 mph - N/A   Clear
5:52 AM -7.6 °F -27.5 °F -16.6 °F 65% 30.31 in 10.0 mi WNW 12.7 mph 20.7 mph N/A   Clear
6:13 AM -7.6 °F -29.1 °F -16.6 °F 65% 30.30 in 10.0 mi NW 15.0 mph 21.9 mph N/A   Clear
6:33 AM -7.6 °F -28.3 °F -16.6 °F 65% 30.30 in 10.0 mi WNW 13.8 mph - N/A   Clear
6:52 AM -7.6 °F -27.5 °F -16.6 °F 65% 30.30 in 10.0 mi WNW 12.7 mph - N/A   Clear
7:13 AM -7.6 °F -29.8 °F -16.6 °F 65% 30.30 in 10.0 mi WNW 16.1 mph 21.9 mph N/A   Clear
7:33 AM -7.6 °F -30.5 °F -16.6 °F 65% 30.30 in 10.0 mi WNW 17.3 mph 24.2 mph N/A   Clear
7:52 AM -7.6 °F -27.5 °F -16.6 °F 65% 30.30 in 10.0 mi WNW 12.7 mph - N/A   Clear
8:13 AM -7.6 °F -29.1 °F -16.6 °F 65% 30.30 in 10.0 mi WNW 15.0 mph - N/A   Clear
8:33 AM -5.8 °F -28.2 °F -16.6 °F 60% 30.30 in 10.0 mi WNW 17.3 mph - N/A   Clear
8:52 AM -5.8 °F -29.4 °F -16.6 °F 60% 30.30 in 10.0 mi NW 19.6 mph 27.6 mph N/A   Clear
9:13 AM -5.8 °F -29.9 °F -14.8 °F 65% 30.32 in 10.0 mi WNW 20.7 mph 26.5 mph N/A   Clear
9:33 AM -5.8 °F -29.4 °F -14.8 °F 65% 30.32 in 10.0 mi NW 19.6 mph 26.5 mph N/A   Clear
9:52 AM -4.0 °F -26.4 °F -14.8 °F 60% 30.32 in 10.0 mi WNW 18.4 mph 24.2 mph N/A   Clear
10:13 AM -4.0 °F -26.4 °F -13.0 °F 65% 30.33 in 10.0 mi WNW 18.4 mph 23.0 mph N/A   Clear
10:33 AM -2.2 °F -25.2 °F -13.0 °F 60% 30.33 in 10.0 mi NW 20.7 mph 25.3 mph N/A   Clear
10:52 AM -2.2 °F -24.1 °F -13.0 °F 60% 30.33 in 10.0 mi NW 18.4 mph - N/A   Clear
11:13 AM -0.4 °F -21.7 °F -11.2 °F 60% 30.32 in 10.0 mi NW 18.4 mph - N/A   Clear
11:33 AM -0.4 °F -21.7 °F -9.4 °F 66% 30.32 in 10.0 mi WNW 18.4 mph 23.0 mph N/A   Clear
11:52 AM 1.4 °F -19.9 °F -9.4 °F 61% 30.31 in 10.0 mi WNW 19.6 mph 25.3 mph N/A   Clear
12:13 PM 1.4 °F -18.8 °F -9.4 °F 61% 30.30 in 10.0 mi WNW 17.3 mph 24.2 mph N/A   Scattered Clouds
12:33 PM 3.2 °F -15.3 °F -7.6 °F 61% 30.28 in 10.0 mi WNW 15.0 mph 20.7 mph N/A   Scattered Clouds
12:53 PM 3.2 °F -16.5 °F -7.6 °F 61% 30.27 in 10.0 mi NW 17.3 mph - N/A   Scattered Clouds
1:13 PM 3.2 °F -17.1 °F -7.6 °F 61% 30.27 in 10.0 mi WNW 18.4 mph 24.2 mph N/A   Scattered Clouds
1:33 PM 5.0 °F -14.2 °F -7.6 °F 56% 30.26 in 10.0 mi WNW 17.3 mph 20.7 mph N/A   Scattered Clouds
1:53 PM 5.0 °F -13.6 °F -7.6 °F 56% 30.25 in 10.0 mi WNW 16.1 mph 21.9 mph N/A   Scattered Clouds
2:13 PM 5.0 °F -14.7 °F -7.6 °F 56% 30.25 in 10.0 mi West 18.4 mph 23.0 mph N/A   Clear
2:33 PM 5.0 °F -14.2 °F -7.6 °F 56% 30.25 in 10.0 mi WNW 17.3 mph 23.0 mph N/A   Clear
2:53 PM 5.0 °F -14.7 °F -7.6 °F 56% 30.25 in 10.0 mi West 18.4 mph 21.9 mph N/A   Clear
3:13 PM 5.0 °F -15.2 °F -7.6 °F 56% 30.26 in 10.0 mi WNW 19.6 mph - N/A   Clear
3:33 PM 5.0 °F -15.2 °F -7.6 °F 56% 30.26 in 10.0 mi WNW 19.6 mph 25.3 mph N/A   Clear
3:53 PM 5.0 °F -14.7 °F -7.6 °F 56% 30.26 in 10.0 mi WNW 18.4 mph 25.3 mph N/A   Clear
4:13 PM 5.0 °F -14.7 °F -9.4 °F 52% 30.26 in 10.0 mi WNW 18.4 mph 25.3 mph N/A   Clear
4:33 PM 5.0 °F -11.6 °F -7.6 °F 56% 30.26 in 10.0 mi WNW 12.7 mph 17.3 mph N/A   Clear
4:53 PM 3.2 °F -15.9 °F -7.6 °F 61% 30.26 in 10.0 mi WNW 16.1 mph - N/A   Clear
5:13 PM 3.2 °F -13.9 °F -7.6 °F 61% 30.26 in 10.0 mi WNW 12.7 mph - N/A   Clear
5:33 PM 3.2 °F -14.6 °F -7.6 °F 61% 30.26 in 10.0 mi WNW 13.8 mph 18.4 mph N/A   Clear
5:53 PM 3.2 °F -13.9 °F -7.6 °F 61% 30.27 in 10.0 mi WNW 12.7 mph - N/A   Clear
6:13 PM 1.4 °F -16.1 °F -7.6 °F 66% 30.27 in 10.0 mi WNW 12.7 mph 20.7 mph N/A   Clear
6:33 PM 1.4 °F -16.1 °F -7.6 °F 66% 30.27 in 10.0 mi WNW 12.7 mph - N/A   Clear
6:53 PM 1.4 °F -13.5 °F -7.6 °F 66% 30.27 in 10.0 mi WNW 9.2 mph - N/A   Clear
7:13 PM 1.4 °F -13.5 °F -7.6 °F 66% 30.27 in 10.0 mi West 9.2 mph - N/A   Clear
7:33 PM 1.4 °F -16.1 °F -7.6 °F 66% 30.27 in 10.0 mi West 12.7 mph 16.1 mph N/A   Clear
7:53 PM 1.4 °F -16.9 °F -7.6 °F 66% 30.26 in 10.0 mi West 13.8 mph - N/A   Clear
8:12 PM 1.4 °F -16.1 °F -7.6 °F 66% 30.26 in 10.0 mi West 12.7 mph - N/A   Clear
8:33 PM 1.4 °F -16.1 °F -7.6 °F 66% 30.26 in 10.0 mi West 12.7 mph 18.4 mph N/A   Clear
8:53 PM 1.4 °F -17.6 °F -7.6 °F 66% 30.26 in 10.0 mi WNW 15.0 mph 20.7 mph N/A   Clear
9:12 PM 1.4 °F -16.9 °F -7.6 °F 66% 30.26 in 10.0 mi WNW 13.8 mph - N/A   Clear
9:33 PM 1.4 °F -15.3 °F -7.6 °F 66% 30.26 in 10.0 mi West 11.5 mph - N/A   Clear
9:53 PM 1.4 °F -16.9 °F -7.6 °F 66% 30.26 in 10.0 mi West 13.8 mph - N/A   Clear
10:12 PM 1.4 °F -16.1 °F -7.6 °F 66% 30.26 in 10.0 mi West 12.7 mph - N/A   Clear
10:33 PM 1.4 °F -14.5 °F -7.6 °F 66% 30.26 in 10.0 mi West 10.4 mph - N/A   Clear
10:53 PM 1.4 °F -15.3 °F -7.6 °F 66% 30.26 in 10.0 mi WNW 11.5 mph - N/A   Clear
11:12 PM 1.4 °F -14.5 °F -7.6 °F 66% 30.27 in 10.0 mi WNW 10.4 mph - N/A   Clear
11:33 PM 1.4 °F -15.3 °F -7.6 °F 66% 30.27 in 10.0 mi West 11.5 mph - N/A   Clear
11:53 PM 1.4 °F -15.3 °F -7.6 °F 66% 30.27 in 10.0 mi WNW 11.5 mph - N/A   Clear